Location: Decatur(IL)
(39.8400°N, 88.9550°W)
Time: 18:29:49
(UTC-05:00)

Cosmos 1953 - Visible Passes

Search period start: 01 September 2014 00:00
Search period end: 11 September 2014 00:00
Orbit: 549 x 571 km, 82.5° (Epoch: 31 August)

Date Brightness Start Highest point End Pass type
(mag) Time Alt. Az. Time Alt. Az. Time Alt. Az.
01 Sep 5.3 22:51:01 12° N 22:51:01 12° N 22:51:22 10° N visible
02 Sep 5.3 22:49:49 13° N 22:49:49 13° N 22:50:16 10° N visible
03 Sep 5.3 22:48:36 13° N 22:48:36 13° N 22:49:09 10° N visible
04 Sep 5.3 22:47:21 14° NNW 22:47:21 14° NNW 22:48:01 10° N visible
05 Sep 5.3 22:46:04 14° NNW 22:46:04 14° NNW 22:46:50 10° NNW visible
06 Sep 4.9 21:08:49 10° NE 21:08:49 10° NE 21:08:51 10° NE visible
06 Sep 5.3 22:44:44 15° NNW 22:44:44 15° NNW 22:45:37 10° NNW visible
07 Sep 4.6 21:07:27 13° NE 21:07:27 13° NE 21:08:00 10° NNE visible
07 Sep 5.3 22:43:21 15° NW 22:43:21 15° NW 22:44:21 10° NNW visible
08 Sep 4.4 21:06:01 17° NE 21:06:01 17° NE 21:07:07 10° NNE visible
08 Sep 5.3 22:41:55 14° NW 22:41:55 14° NW 22:43:01 10° NNW visible
09 Sep 4.0 21:04:31 22° NE 21:04:31 22° NE 21:06:10 10° NNE visible
09 Sep 5.4 22:40:24 14° NW 22:40:24 14° NW 22:41:36 10° NW visible
10 Sep 3.5 21:02:55 29° NE 21:02:55 29° NE 21:05:12 10° NNE visible
10 Sep 5.4 22:38:48 12° WNW 22:38:48 12° WNW 22:40:03 10° NW visible
